Pensacola, FL

7:44 AM CST on December 03, 2016 (GMT -0600)
Pensacola Regional

Weather History for KPNS - March, 2012

Change the Weather History Date:

Saturday, March 3, 2012

  Actual Average Record
Temperature  
Mean Temperature 62 °F 58 °F  
Max Temperature 73 °F 67 °F 80 °F (1997)
Min Temperature 51 °F 49 °F 23 °F (1980)
Degree Days  
Heating Degree Days 3 8  
Month to date heating degree days 3 24  
Since 1 July heating degree days 881 1332  
Cooling Degree Days 0 1  
Month to date cooling degree days 18 2  
Year to date cooling degree days 70 16  
Growing Degree Days 12 (Base 50)    
Moisture  
Dew Point 57 °F    
Average Humidity 74    
Maximum Humidity 93    
Minimum Humidity 54    
Precipitation  
Precipitation 1.04 in 0.20 in 11.10 in (1979)
Month to date precipitation 1.18 0.60  
Year to date precipitation 9.42 10.29  
Snow  
Snow 0.00 in 0.00 in - ()
Month to date snowfall 0.0 0.0  
Since 1 July snowfall 0.0 0.0  
Snow Depth 0.00 in    
Sea Level Pressure  
Sea Level Pressure 29.79 in    
Wind  
Wind Speed 12 mph (NNW)    
Max Wind Speed 23 mph    
Max Gust Speed 30 mph    
Visibility 8 miles    
Events Rain , Thunderstorm    
T = Trace of Precipitation, MM = Missing Value Source: NWS Daily Summary

Daily Weather History Graph

Daily Weather History Graph

Search for Another Location

Airport or City:

Trip Planner

Search our weather history database for the weather conditions in past years. The results will help you decide how hot, cold, wet, or windy it might be!

Date:

Astronomy

Mar. 03, 2012 Rise Set
Actual Time 6:12 AM CST 5:49 PM CST
Civil Twilight 5:48 AM CST 6:13 PM CST
Nautical Twilight 5:20 AM CST 6:41 PM CST
Astronomical Twilight 4:52 AM CST 7:09 PM CST
Moon 1:15 PM CST 2:32 AM CST
Length of Visible Light 12h 25m
Length of Day
11h 37m
Waxing Gibbous, 75% of the Moon is Illuminated
Mar 3
Waxing Gibbous
Mar 8
Full
Mar 14
Last Quarter
Mar 22
New
Mar 30
First Quarter

Hourly Weather History & Observations

Time (CST) Temp. Dew Point Humidity Pressure Visibility Wind Dir Wind Speed Gust Speed Precip Events Conditions
12:53 AM 71.1 °F 69.1 °F 93% 29.77 in 8.0 mi SW 17.3 mph 25.3 mph N/A   Overcast
1:53 AM 71.1 °F 69.1 °F 93% 29.76 in 9.0 mi SW 18.4 mph 24.2 mph N/A   Overcast
2:46 AM 71.6 °F 69.8 °F 94% 29.75 in 10.0 mi SW 15.0 mph 27.6 mph N/A   Overcast
2:53 AM 72.0 °F 69.1 °F 91% 29.76 in 10.0 mi SW 16.1 mph 27.6 mph N/A   Overcast
3:53 AM 73.0 °F 69.1 °F 87% 29.76 in 10.0 mi WSW 11.5 mph 23.0 mph N/A   Overcast
4:43 AM 71.6 °F 69.8 °F 94% 29.75 in 9.0 mi WSW 16.1 mph 21.9 mph 0.05 in Rain Light Rain
4:53 AM 71.1 °F 69.1 °F 93% 29.75 in 9.0 mi SW 13.8 mph 21.9 mph 0.05 in   Overcast
5:25 AM 71.6 °F 69.8 °F 94% 29.74 in 10.0 mi SW 15.0 mph 23.0 mph 0.04 in   Mostly Cloudy
5:51 AM 71.6 °F 69.8 °F 94% 29.74 in 9.0 mi SW 16.1 mph 24.2 mph 0.04 in   Mostly Cloudy
5:53 AM 71.1 °F 69.1 °F 93% 29.75 in 9.0 mi SW 12.7 mph 24.2 mph 0.04 in   Overcast
6:06 AM 71.6 °F 69.8 °F 94% 29.74 in 9.0 mi SW 13.8 mph 21.9 mph N/A   Overcast
6:53 AM 71.1 °F 68.0 °F 90% 29.75 in 9.0 mi WSW 12.7 mph - 0.04 in Rain Light Rain
7:53 AM 66.0 °F 62.1 °F 87% 29.78 in 10.0 mi NNW 19.6 mph 25.3 mph 0.00 in Rain Light Rain
7:55 AM 64.4 °F 60.8 °F 88% 29.78 in 10.0 mi NW 16.1 mph - 0.00 in Rain Light Rain
7:58 AM 64.4 °F 60.8 °F 88% 29.77 in 10.0 mi NNW 12.7 mph 24.2 mph 0.00 in Rain Light Rain
8:21 AM 62.6 °F 59.0 °F 88% 29.76 in 10.0 mi North 12.7 mph - 0.00 in Rain Light Rain
8:53 AM 61.0 °F 57.0 °F 87% 29.78 in 10.0 mi North 15.0 mph - 0.00 in   Mostly Cloudy
9:53 AM 61.0 °F 55.9 °F 83% 29.79 in 10.0 mi North 9.2 mph - 0.02 in Rain , Thunderstorm Light Thunderstorms and Rain
10:53 AM 60.8 °F 55.4 °F 82% 29.80 in 5.0 mi North 9.2 mph - N/A Rain , Thunderstorm Thunderstorms and Rain
11:53 AM 59.0 °F 55.9 °F 90% 29.82 in 6.0 mi NNE 5.8 mph - 0.09 in Rain Rain
12:00 PM 59.0 °F 57.2 °F 94% 29.81 in 1.8 mi North 5.8 mph - 0.03 in Rain Heavy Rain
12:04 PM 59.0 °F 55.4 °F 88% 29.81 in 5.0 mi North 6.9 mph - 0.11 in Rain Heavy Rain
12:53 PM 57.0 °F 55.0 °F 93% 29.80 in 2.5 mi North 11.5 mph - 0.23 in Rain Heavy Rain
1:02 PM 57.2 °F 53.6 °F 88% 29.81 in 3.0 mi North 9.2 mph - 0.03 in Rain Light Rain
1:53 PM 57.0 °F 54.0 °F 89% 29.81 in 3.0 mi North 11.5 mph - 0.18 in Rain Light Rain
2:53 PM 57.0 °F 53.1 °F 87% 29.78 in 5.0 mi NNE 8.1 mph - 0.00 in   Overcast
2:55 PM 57.2 °F 53.6 °F 88% 29.77 in 10.0 mi NNE 8.1 mph - 0.00 in Rain , Thunderstorm Thunderstorms and Rain
3:16 PM 55.4 °F 53.6 °F 94% 29.77 in 1.8 mi North 9.2 mph - 0.06 in Rain , Thunderstorm Thunderstorms and Rain
3:27 PM 55.4 °F 51.8 °F 88% 29.78 in 3.0 mi NNE 9.2 mph 17.3 mph 0.16 in Rain , Thunderstorm Thunderstorms and Rain
3:53 PM 55.0 °F 51.1 °F 86% 29.79 in 8.0 mi North 9.2 mph 18.4 mph 0.19 in Rain , Thunderstorm Thunderstorms and Rain
3:55 PM 55.4 °F 51.8 °F 88% 29.78 in 6.0 mi North 8.1 mph 18.4 mph 0.00 in Rain Light Rain
4:48 PM 53.6 °F 51.8 °F 94% 29.78 in 9.0 mi NNE 8.1 mph - 0.07 in Rain Light Rain
4:53 PM 54.0 °F 51.1 °F 90% 29.79 in 6.0 mi NNE 6.9 mph - 0.07 in Rain Light Rain
5:36 PM 53.6 °F 51.8 °F 94% 29.81 in 10.0 mi North 4.6 mph - 0.02 in Rain Light Rain
5:43 PM 55.4 °F 51.8 °F 88% 29.80 in 7.0 mi North 5.8 mph - 0.02 in Rain Light Rain
5:53 PM 55.0 °F 53.1 °F 93% 29.80 in 7.0 mi North 8.1 mph - 0.02 in Rain Light Rain
6:53 PM 53.1 °F 46.0 °F 77% 29.84 in 10.0 mi North 10.4 mph - 0.01 in Rain Light Rain
7:53 PM 52.0 °F 44.1 °F 74% 29.84 in 10.0 mi North 9.2 mph 19.6 mph 0.00 in   Overcast
8:53 PM 52.0 °F 41.0 °F 66% 29.88 in 10.0 mi North 11.5 mph - 0.00 in   Overcast
9:53 PM 52.0 °F 37.0 °F 57% 29.91 in 10.0 mi North 12.7 mph - N/A   Overcast
10:53 PM 52.0 °F 36.0 °F 54% 29.92 in 10.0 mi NNW 10.4 mph 19.6 mph N/A   Mostly Cloudy
11:53 PM 51.1 °F 36.0 °F 56% 29.94 in 10.0 mi NNW 16.1 mph 26.5 mph N/A   Partly Cloudy